| time (UTC) | temp F | wind direction | speed knots | gust knots | rain 1hr in | rain 24hr in | rain mn in | humidity % | barometer mb |
| 20260504042004 | 47 | 306 | 1.7 | 2.6 | 0.00 | 1.02 | 0.00 | 65 | 1018.6 |
| 20260504041803 | 47 | 315 | 1.7 | 1.7 | 0.00 | 1.02 | 0.00 | 65 | 1018.7 |
| 20260504041404 | 47 | 315 | 1.7 | 1.7 | 0.00 | 1.02 | 0.00 | 65 | 1018.7 |
| 20260504041204 | 47 | 307 | 1.7 | 2.6 | 0.00 | 1.02 | 0.00 | 65 | 1018.7 |
| 20260504041004 | 47 | 299 | 1.7 | 2.6 | 0.00 | 1.02 | 0.00 | 64 | 1018.8 |
| 20260504040804 | 47 | 300 | 1.7 | 2.6 | 0.00 | 1.02 | 0.00 | 64 | 1018.6 |
| 20260504040604 | 47 | 300 | 1.7 | 2.6 | 0.00 | 1.02 | 0.00 | 64 | 1018.7 |
| 20260504040403 | 47 | 300 | 1.7 | 2.6 | 0.00 | 1.02 | 0.00 | 65 | 1018.7 |
| 20260504040204 | 47 | 307 | 1.7 | 2.6 | 0.00 | 1.02 | 0.00 | 65 | 1018.8 |
| 20260504040004 | 47 | 315 | 1.7 | 2.6 | 0.00 | 1.02 | 0.00 | 65 | 1018.8 |
| 20260504035804 | 47 | 315 | 1.7 | 2.6 | 0.00 | 1.02 | 0.00 | 65 | 1018.9 |
| 20260504035603 | 47 | 314 | 1.7 | 2.6 | 0.00 | 1.02 | 0.00 | 65 | 1018.6 |
| 20260504035404 | 47 | 314 | 1.7 | 2.6 | 0.00 | 1.02 | 0.00 | 65 | 1018.6 |
| 20260504035204 | 47 | 314 | 1.7 | 2.6 | 0.00 | 1.02 | 0.00 | 65 | 1018.6 |
| 20260504034803 | 47 | 314 | 1.7 | 2.6 | 0.00 | 1.02 | 0.00 | 64 | 1018.4 |
| 20260504034404 | 47 | 306 | 1.7 | 2.6 | 0.00 | 1.02 | 0.00 | 64 | 1018.3 |
| 20260504034003 | 47 | 307 | 1.7 | 2.6 | 0.00 | 1.02 | 0.00 | 64 | 1018.4 |
| 20260504033804 | 47 | 308 | 2.6 | 2.6 | 0.00 | 1.02 | 0.00 | 63 | 1018.4 |
| 20260504033604 | 47 | 310 | 2.6 | 2.6 | 0.00 | 1.02 | 0.00 | 64 | 1018.4 |
| 20260504033404 | 47 | 314 | 1.7 | 2.6 | 0.00 | 1.02 | 0.00 | 64 | 1018.4 |
| 20260504033204 | 47 | 314 | 1.7 | 2.6 | 0.00 | 1.02 | 0.00 | 65 | 1018.4 |
| 20260504032804 | 47 | 315 | 1.7 | 2.6 | 0.00 | 1.02 | 0.00 | 64 | 1018.4 |
| 20260504032604 | 47 | 315 | 1.7 | 1.7 | 0.00 | 1.02 | 0.00 | 64 | 1018.4 |
| 20260504032404 | 47 | 315 | 1.7 | 1.7 | 0.00 | 1.02 | 0.00 | 64 | 1018.4 |
| 20260504032004 | 47 | 314 | 1.7 | 2.6 | 0.00 | 1.02 | 0.00 | 64 | 1018.3 |
| 20260504031804 | 47 | 314 | 1.7 | 2.6 | 0.00 | 1.02 | 0.00 | 64 | 1018.3 |
| 20260504031404 | 47 | 314 | 2.6 | 2.6 | 0.00 | 1.02 | 0.00 | 64 | 1018.0 |
| 20260504031203 | 47 | 314 | 2.6 | 2.6 | 0.00 | 1.02 | 0.00 | 64 | 1018.1 |
| 20260504031004 | 47 | 314 | 2.6 | 2.6 | 0.00 | 1.02 | 0.00 | 64 | 1018.2 |
| 20260504030604 | 47 | 314 | 1.7 | 2.6 | 0.00 | 1.02 | 0.00 | 65 | 1018.1 |
| 20260504030404 | 47 | 314 | 1.7 | 2.6 | 0.00 | 1.02 | 0.00 | 65 | 1018.3 |
| 20260504030004 | 47 | 314 | 1.7 | 2.6 | 0.00 | 1.02 | 0.00 | 64 | 1018.4 |
| 20260504025804 | 47 | 314 | 1.7 | 2.6 | 0.00 | 1.02 | 0.00 | 63 | 1018.3 |
| 20260504025404 | 47 | 314 | 1.7 | 2.6 | 0.00 | 1.02 | 0.00 | 63 | 1018.2 |
| 20260504025204 | 47 | 314 | 2.6 | 2.6 | 0.00 | 1.02 | 0.00 | 63 | 1018.2 |
| 20260504025004 | 47 | 314 | 2.6 | 2.6 | 0.00 | 1.02 | 0.00 | 62 | 1018.1 |
| 20260504024804 | 47 | 314 | 1.7 | 2.6 | 0.00 | 1.02 | 0.00 | 62 | 1018.3 |
| 20260504024604 | 47 | 314 | 1.7 | 2.6 | 0.00 | 1.02 | 0.00 | 62 | 1018.4 |
| 20260504024404 | 47 | 314 | 1.7 | 2.6 | 0.00 | 1.02 | 0.00 | 62 | 1018.4 |
| 20260504024004 | 47 | 298 | 1.7 | 2.6 | 0.00 | 1.02 | 0.00 | 62 | 1018.4 |
| 20260504023604 | 47 | 299 | 1.7 | 2.6 | 0.00 | 1.02 | 0.00 | 62 | 1018.4 |
| 20260504023404 | 47 | 299 | 1.7 | 2.6 | 0.00 | 1.02 | 0.00 | 62 | 1018.4 |
| 20260504023203 | 47 | 310 | 1.7 | 1.7 | 0.00 | 1.02 | 0.00 | 62 | 1018.2 |
| 20260504023004 | 47 | 315 | 1.7 | 2.6 | 0.00 | 1.02 | 0.00 | 62 | 1018.1 |
| 20260504022804 | 47 | 314 | 1.7 | 2.6 | 0.00 | 1.02 | 0.00 | 62 | 1018.3 |
| 20260504022604 | 48 | 314 | 1.7 | 2.6 | 0.00 | 1.02 | 0.00 | 62 | 1018.2 |
| 20260504022404 | 48 | 314 | 1.7 | 2.6 | 0.00 | 1.02 | 0.00 | 62 | 1018.3 |
| 20260504022204 | 48 | 314 | 1.7 | 2.6 | 0.00 | 1.02 | 0.00 | 62 | 1018.4 |
| 20260504021604 | 48 | 315 | 1.7 | 1.7 | 0.00 | 1.02 | 0.00 | 62 | 1018.5 |
| 20260504021403 | 48 | 314 | 1.7 | 1.7 | 0.00 | 1.02 | 0.00 | 62 | 1018.4 |
| 20260504021203 | 48 | 317 | 0.9 | 1.7 | 0.00 | 1.02 | 0.00 | 62 | 1018.4 |
| 20260504021004 | 48 | 317 | 0.9 | 1.7 | 0.00 | 1.02 | 0.00 | 62 | 1018.2 |
| 20260504020804 | 48 | 307 | 1.7 | 2.6 | 0.00 | 1.02 | 0.00 | 62 | 1018.3 |
| 20260504020403 | 48 | 299 | 1.7 | 2.6 | 0.00 | 1.02 | 0.00 | 62 | 1018.3 |
| 20260504020203 | 48 | 300 | 1.7 | 2.6 | 0.00 | 1.02 | 0.00 | 62 | 1018.4 |
| 20260504020004 | 48 | 301 | 1.7 | 2.6 | 0.00 | 1.02 | 0.00 | 62 | 1018.2 |
| 20260504015804 | 48 | 306 | 2.6 | 2.6 | 0.00 | 1.02 | 0.00 | 62 | 1018.3 |
| 20260504015403 | 48 | 316 | 2.6 | 2.6 | 0.00 | 1.02 | 0.00 | 62 | 1018.3 |
| 20260504015203 | 48 | 318 | 1.7 | 2.6 | 0.00 | 1.02 | 0.00 | 63 | 1018.2 |
| 20260504015004 | 48 | 319 | 1.7 | 2.6 | 0.00 | 1.02 | 0.00 | 63 | 1018.1 |
| 20260504014804 | 48 | 319 | 1.7 | 2.6 | 0.00 | 1.02 | 0.00 | 63 | 1018.2 |
| 20260504014604 | 48 | 321 | 1.7 | 2.6 | 0.00 | 1.02 | 0.00 | 63 | 1018.1 |
| 20260504014403 | 48 | 326 | 1.7 | 2.6 | 0.00 | 1.02 | 0.00 | 63 | 1018.0 |
| 20260504014203 | 49 | 330 | 1.7 | 2.6 | 0.00 | 1.02 | 0.00 | 63 | 1018.1 |
| 20260504014004 | 49 | 331 | 1.7 | 2.6 | 0.00 | 1.02 | 0.00 | 63 | 1018.1 |
| 20260504013603 | 49 | 327 | 1.7 | 2.6 | 0.00 | 1.02 | 0.00 | 62 | 1018.1 |
| 20260504013404 | 49 | 329 | 1.7 | 2.6 | 0.00 | 1.02 | 0.00 | 62 | 1018.1 |
| 20260504013203 | 49 | 330 | 1.7 | 2.6 | 0.00 | 1.02 | 0.00 | 62 | 1018.1 |
| 20260504013004 | 49 | 332 | 1.7 | 2.6 | 0.00 | 1.02 | 0.00 | 62 | 1018.1 |
| 20260504012804 | 49 | 339 | 1.7 | 2.6 | 0.00 | 1.02 | 0.00 | 62 | 1018.0 |
| 20260504012604 | 49 | 346 | 0.9 | 2.6 | 0.00 | 1.02 | 0.00 | 62 | 1017.9 |
| 20260504012404 | 49 | 314 | 0.9 | 2.6 | 0.00 | 1.02 | 0.00 | 62 | 1018.0 |
| 20260504012203 | 49 | 278 | 0.9 | 1.7 | 0.00 | 1.02 | 0.00 | 61 | 1018.1 |
| 20260504012004 | 49 | 279 | 0.9 | 1.7 | 0.00 | 1.02 | 0.00 | 61 | 1017.9 |
| 20260504011803 | 49 | 274 | 0.9 | 1.7 | 0.00 | 1.02 | 0.00 | 61 | 1018.0 |
| 20260504011603 | 49 | 285 | 1.7 | 1.7 | 0.00 | 1.02 | 0.00 | 61 | 1018.0 |
| 20260504011404 | 50 | 294 | 0.9 | 2.6 | 0.00 | 1.02 | 0.00 | 61 | 1018.0 |
| 20260504011204 | 50 | 310 | 0.9 | 2.6 | 0.00 | 1.02 | 0.00 | 61 | 1017.9 |
| 20260504011004 | 50 | 329 | 0.9 | 2.6 | 0.00 | 1.02 | 0.00 | 60 | 1017.8 |
| 20260504010804 | 50 | 341 | 1.7 | 2.6 | 0.00 | 1.02 | 0.00 | 60 | 1017.8 |
| 20260504010404 | 50 | 338 | 1.7 | 4.3 | 0.00 | 1.02 | 0.00 | 60 | 1018.0 |
| 20260504010204 | 50 | 321 | 1.7 | 4.3 | 0.00 | 1.02 | 0.00 | 60 | 1018.0 |
| 20260504010004 | 50 | 312 | 1.7 | 4.3 | 0.00 | 1.02 | 0.00 | 60 | 1018.0 |
| 20260504005404 | 51 | 324 | 1.7 | 4.3 | 0.00 | 1.02 | 0.00 | 60 | 1017.8 |
| 20260504005204 | 51 | 343 | 1.7 | 4.3 | 0.00 | 1.02 | 0.00 | 60 | 1017.8 |
| 20260504004803 | 51 | 323 | 1.7 | 4.3 | 0.00 | 1.02 | 0.00 | 60 | 1017.9 |
| 20260504004404 | 51 | 327 | 1.7 | 4.3 | 0.00 | 1.02 | 0.00 | 59 | 1017.8 |
| 20260504004004 | 51 | 327 | 1.7 | 4.3 | 0.00 | 1.02 | 0.00 | 58 | 1017.7 |
| 20260504003804 | 51 | 330 | 1.7 | 4.3 | 0.00 | 1.02 | 0.00 | 58 | 1017.8 |
| 20260504003604 | 51 | 327 | 1.7 | 2.6 | 0.00 | 1.02 | 0.00 | 58 | 1017.8 |
| 20260504003204 | 52 | 314 | 0.9 | 1.7 | 0.00 | 1.02 | 0.00 | 56 | 1017.7 |
| 20260504003004 | 52 | 315 | 1.7 | 2.6 | 0.00 | 1.02 | 0.00 | 56 | 1017.5 |
| 20260504002804 | 52 | 314 | 1.7 | 2.6 | 0.00 | 1.02 | 0.00 | 56 | 1017.7 |
| 20260504002604 | 52 | 316 | 1.7 | 2.6 | 0.00 | 1.02 | 0.00 | 56 | 1017.6 |
| 20260504002404 | 52 | 320 | 1.7 | 2.6 | 0.00 | 1.02 | 0.00 | 52 | 1017.6 |
| 20260504002203 | 53 | 326 | 2.6 | 4.3 | 0.00 | 1.02 | 0.00 | 52 | 1017.8 |
| 20260504002004 | 53 | 326 | 2.6 | 4.3 | 0.00 | 1.02 | 0.00 | 52 | 1017.6 |
| 20260504001804 | 53 | 327 | 2.6 | 4.3 | 0.00 | 1.02 | 0.00 | 51 | 1017.6 |
| 20260504001404 | 54 | 327 | 2.6 | 4.3 | 0.00 | 1.02 | 0.00 | 51 | 1017.6 |
| 20260504001204 | 54 | 324 | 1.7 | 4.3 | 0.00 | 1.02 | 0.00 | 51 | 1017.6 |
| 20260504001004 | 54 | 327 | 0.9 | 4.3 | 0.00 | 1.02 | 0.00 | 50 | 1017.7 |
| 20260504000803 | 54 | 337 | 0.9 | 2.6 | 0.00 | 1.02 | 0.00 | 49 | 1017.6 |
| 20260504000603 | 54 | 135 | 0.0 | 1.7 | 0.00 | 1.02 | 0.00 | 47 | 1017.6 |
| 20260504000404 | 54 | 65 | 0.9 | 1.7 | 0.00 | 1.02 | 0.00 | 46 | 1017.5 |
| 20260504000004 | 55 | 35 | 0.9 | 1.7 | 0.00 | 1.02 | 0.00 | 44 | 1017.7 |
| 20260503235603 | 55 | 353 | 0.9 | 2.6 | 0.00 | 1.02 | 0.00 | 43 | 1017.5 |
| 20260503235204 | 56 | 326 | 0.9 | 2.6 | 0.00 | 1.02 | 0.00 | 43 | 1017.8 |
| 20260503235004 | 56 | 292 | 1.7 | 2.6 | 0.00 | 1.02 | 0.00 | 42 | 1017.7 |
| 20260503234804 | 56 | 280 | 1.7 | 2.6 | 0.00 | 1.02 | 0.00 | 42 | 1017.6 |
| 20260503234604 | 56 | 258 | 1.7 | 2.6 | 0.00 | 1.02 | 0.00 | 42 | 1017.5 |
| 20260503234404 | 56 | 228 | 1.7 | 2.6 | 0.00 | 1.02 | 0.00 | 42 | 1017.6 |
| 20260503234204 | 56 | 214 | 1.7 | 2.6 | 0.00 | 1.02 | 0.00 | 41 | 1017.7 |
| 20260503233603 | 57 | 181 | 0.9 | 1.7 | 0.00 | 1.02 | 0.00 | 41 | 1017.6 |
| 20260503233204 | 58 | 115 | 0.9 | 1.7 | 0.00 | 1.02 | 0.00 | 41 | 1017.6 |
| 20260503232804 | 58 | 338 | 0.9 | 2.6 | 0.00 | 1.02 | 0.00 | 41 | 1017.6 |
| 20260503232603 | 58 | 345 | 1.7 | 5.2 | 0.00 | 1.02 | 0.00 | 41 | 1017.7 |
| 20260503232404 | 58 | 336 | 1.7 | 5.2 | 0.00 | 1.02 | 0.00 | 40 | 1017.7 |
| 20260503232203 | 59 | 332 | 2.6 | 5.2 | 0.00 | 1.02 | 0.00 | 38 | 1017.8 |
| 20260503232004 | 59 | 342 | 3.5 | 5.2 | 0.00 | 1.02 | 0.00 | 37 | 1017.7 |
| 20260503231804 | 59 | 347 | 3.5 | 5.2 | 0.00 | 1.02 | 0.00 | 37 | 1017.6 |
| 20260503231604 | 59 | 341 | 3.5 | 5.2 | 0.00 | 1.02 | 0.00 | 37 | 1017.5 |
| 20260503231403 | 59 | 343 | 4.3 | 7.0 | 0.00 | 1.02 | 0.00 | 36 | 1017.7 |
| 20260503231203 | 59 | 5 | 4.3 | 7.0 | 0.00 | 1.02 | 0.00 | 35 | 1017.8 |
| 20260503231004 | 60 | 8 | 3.5 | 7.0 | 0.00 | 1.02 | 0.00 | 35 | 1017.9 |
| 20260503230804 | 60 | 353 | 4.3 | 7.0 | 0.00 | 1.02 | 0.00 | 34 | 1017.8 |
| 20260503230604 | 60 | 2 | 4.3 | 7.0 | 0.00 | 1.02 | 0.00 | 34 | 1017.8 |
| 20260503230204 | 60 | 346 | 4.3 | 7.0 | 0.00 | 1.02 | 0.00 | 35 | 1017.9 |
| 20260503230004 | 60 | 339 | 4.3 | 7.0 | 0.00 | 1.02 | 0.00 | 35 | 1017.9 |
| 20260503225804 | 60 | 355 | 4.3 | 7.8 | 0.00 | 1.02 | 0.00 | 35 | 1017.9 |
| 20260503225204 | 60 | 328 | 4.3 | 7.8 | 0.00 | 1.02 | 0.00 | 34 | 1018.0 |
| 20260503225005 | 60 | 314 | 4.3 | 7.8 | 0.00 | 1.02 | 0.00 | 33 | 1017.8 |
| 20260503224804 | 60 | 303 | 3.5 | 7.8 | 0.00 | 1.02 | 0.00 | 33 | 1018.0 |
| 20260503224603 | 60 | 302 | 2.6 | 6.1 | 0.00 | 1.02 | 0.00 | 32 | 1017.9 |
| 20260503224404 | 60 | 312 | 2.6 | 5.2 | 0.00 | 1.02 | 0.00 | 31 | 1017.9 |
| 20260503224204 | 61 | 333 | 3.5 | 5.2 | 0.00 | 1.02 | 0.00 | 32 | 1017.8 |
| 20260503223803 | 61 | 347 | 4.3 | 8.7 | 0.00 | 1.02 | 0.00 | 32 | 1017.9 |
| 20260503223604 | 61 | 346 | 5.2 | 8.7 | 0.00 | 1.02 | 0.00 | 32 | 1017.8 |
| 20260503223204 | 61 | 348 | 5.2 | 8.7 | 0.00 | 1.02 | 0.00 | 32 | 1017.7 |
| 20260503223004 | 61 | 355 | 4.3 | 8.7 | 0.00 | 1.02 | 0.00 | 32 | 1017.9 |
| 20260503222604 | 61 | 341 | 3.5 | 7.0 | 0.00 | 1.02 | 0.00 | 33 | 1018.0 |
| 20260503222403 | 61 | 336 | 3.5 | 7.0 | 0.00 | 1.02 | 0.00 | 32 | 1017.7 |
| 20260503222204 | 61 | 327 | 3.5 | 7.0 | 0.00 | 1.02 | 0.00 | 31 | 1017.9 |
| 20260503222005 | 61 | 330 | 4.3 | 7.0 | 0.00 | 1.02 | 0.00 | 31 | 1017.9 |
| 20260503221804 | 61 | 337 | 5.2 | 8.7 | 0.00 | 1.02 | 0.00 | 31 | 1017.7 |
| 20260503221604 | 61 | 342 | 5.2 | 8.7 | 0.00 | 1.02 | 0.00 | 31 | 1017.6 |
| 20260503221404 | 61 | 340 | 4.3 | 8.7 | 0.00 | 1.02 | 0.00 | 31 | 1017.7 |
| 20260503221204 | 62 | 353 | 4.3 | 8.7 | 0.00 | 1.02 | 0.00 | 30 | 1017.7 |
| 20260503221004 | 62 | 344 | 4.3 | 8.7 | 0.00 | 1.02 | 0.00 | 30 | 1017.7 |
| 20260503220804 | 62 | 335 | 4.3 | 8.7 | 0.00 | 1.02 | 0.00 | 30 | 1017.9 |
| 20260503220604 | 62 | 327 | 4.3 | 7.0 | 0.00 | 1.02 | 0.00 | 30 | 1017.8 |
| 20260503220404 | 62 | 306 | 4.3 | 9.6 | 0.00 | 1.02 | 0.00 | 30 | 1017.9 |
| 20260503220204 | 62 | 306 | 5.2 | 9.6 | 0.00 | 1.02 | 0.00 | 28 | 1017.7 |
| 20260503220004 | 62 | 309 | 5.2 | 9.6 | 0.00 | 1.02 | 0.00 | 30 | 1017.8 |
| 20260503215803 | 62 | 333 | 5.2 | 9.6 | 0.00 | 1.02 | 0.00 | 30 | 1017.9 |
| 20260503215604 | 62 | 349 | 5.2 | 9.6 | 0.00 | 1.02 | 0.00 | 30 | 1018.0 |
| 20260503215004 | 62 | 23 | 4.3 | 7.8 | 0.00 | 1.02 | 0.00 | 30 | 1017.9 |
| 20260503214604 | 62 | 328 | 5.2 | 13.0 | 0.00 | 1.02 | 0.00 | 30 | 1017.8 |
| 20260503214403 | 62 | 320 | 6.1 | 13.0 | 0.00 | 1.02 | 0.00 | 30 | 1018.1 |
| 20260503214204 | 62 | 313 | 5.2 | 13.0 | 0.00 | 1.02 | 0.00 | 27 | 1018.0 |
| 20260503214004 | 63 | 292 | 6.1 | 13.0 | 0.00 | 1.02 | 0.00 | 27 | 1017.9 |
| 20260503213403 | 63 | 310 | 6.1 | 10.4 | 0.00 | 1.02 | 0.00 | 27 | 1017.8 |
| 20260503213203 | 63 | 320 | 7.0 | 10.4 | 0.00 | 1.02 | 0.00 | 25 | 1018.0 |
| 20260503213004 | 64 | 341 | 7.0 | 13.0 | 0.00 | 1.02 | 0.00 | 26 | 1017.9 |
| 20260503212804 | 64 | 345 | 6.1 | 13.0 | 0.00 | 1.02 | 0.00 | 26 | 1018.0 |
| 20260503212604 | 64 | 341 | 6.1 | 13.0 | 0.00 | 1.02 | 0.00 | 25 | 1018.2 |
| 20260503212203 | 65 | 322 | 6.1 | 13.0 | 0.00 | 1.02 | 0.00 | 26 | 1018.0 |
| 20260503212004 | 65 | 314 | 6.1 | 10.4 | 0.00 | 1.02 | 0.00 | 25 | 1018.1 |
| 20260503211603 | 65 | 311 | 6.1 | 10.4 | 0.00 | 1.02 | 0.00 | 24 | 1018.0 |
| 20260503211404 | 66 | 310 | 6.1 | 10.4 | 0.00 | 1.02 | 0.00 | 25 | 1018.2 |
| 20260503211204 | 66 | 328 | 5.2 | 10.4 | 0.00 | 1.02 | 0.00 | 25 | 1018.3 |
| 20260503211004 | 66 | 324 | 5.2 | 9.6 | 0.00 | 1.02 | 0.00 | 25 | 1018.2 |
| 20260503210804 | 65 | 323 | 5.2 | 9.6 | 0.00 | 1.02 | 0.00 | 25 | 1018.3 |
| 20260503210603 | 65 | 307 | 6.1 | 9.6 | 0.00 | 1.02 | 0.00 | 23 | 1018.1 |
| 20260503210404 | 65 | 322 | 6.1 | 9.6 | 0.00 | 1.02 | 0.00 | 24 | 1018.3 |
| 20260503210204 | 65 | 317 | 7.0 | 9.6 | 0.00 | 1.02 | 0.00 | 23 | 1018.3 |
| 20260503210004 | 66 | 322 | 6.1 | 9.6 | 0.00 | 1.02 | 0.00 | 24 | 1018.4 |
| 20260503205803 | 66 | 334 | 6.1 | 8.7 | 0.00 | 1.02 | 0.00 | 23 | 1018.4 |
| 20260503205604 | 66 | 350 | 6.1 | 8.7 | 0.00 | 1.02 | 0.00 | 22 | 1018.4 |
| 20260503205204 | 67 | 8 | 6.1 | 8.7 | 0.00 | 1.02 | 0.00 | 22 | 1018.4 |
| 20260503205004 | 67 | 8 | 7.0 | 8.7 | 0.00 | 1.02 | 0.00 | 22 | 1018.5 |
| 20260503204804 | 69 | 17 | 6.1 | 8.7 | 0.00 | 1.02 | 0.00 | 22 | 1018.5 |
| 20260503204604 | 69 | 23 | 5.2 | 8.7 | 0.00 | 1.02 | 0.00 | 22 | 1018.4 |
| 20260503204403 | 69 | 31 | 4.3 | 8.7 | 0.00 | 1.02 | 0.00 | 22 | 1018.4 |
| 20260503204203 | 70 | 32 | 3.5 | 8.7 | 0.00 | 1.02 | 0.00 | 23 | 1018.5 |
| 20260503204004 | 70 | 56 | 3.5 | 12.2 | 0.00 | 1.02 | 0.00 | 21 | 1018.4 |
| 20260503203804 | 70 | 347 | 4.3 | 12.2 | 0.00 | 1.02 | 0.00 | 21 | 1018.6 |
| 20260503203603 | 70 | 338 | 5.2 | 12.2 | 0.00 | 1.02 | 0.00 | 23 | 1018.6 |
| 20260503203403 | 70 | 343 | 7.0 | 13.0 | 0.00 | 1.02 | 0.00 | 23 | 1018.6 |
| 20260503202804 | 71 | 336 | 7.0 | 14.8 | 0.00 | 1.02 | 0.00 | 22 | 1018.9 |
| 20260503202604 | 71 | 326 | 7.0 | 14.8 | 0.00 | 1.02 | 0.00 | 22 | 1018.9 |
| 20260503202204 | 72 | 294 | 5.2 | 14.8 | 0.00 | 1.02 | 0.00 | 22 | 1018.8 |
| 20260503202004 | 72 | 295 | 5.2 | 8.7 | 0.00 | 1.02 | 0.00 | 21 | 1019.0 |
| 20260503201803 | 73 | 331 | 5.2 | 8.7 | 0.00 | 1.02 | 0.00 | 23 | 1018.9 |
| 20260503201404 | 72 | 42 | 4.3 | 7.8 | 0.00 | 1.02 | 0.00 | 25 | 1019.0 |
| 20260503201204 | 71 | 38 | 4.3 | 7.8 | 0.00 | 1.02 | 0.00 | 23 | 1019.0 |
| 20260503201004 | 71 | 32 | 5.2 | 8.7 | 0.00 | 1.02 | 0.00 | 24 | 1019.0 |
| 20260503200804 | 70 | 349 | 5.2 | 8.7 | 0.00 | 1.02 | 0.00 | 25 | 1019.2 |
| 20260503200404 | 70 | 311 | 4.3 | 8.7 | 0.00 | 1.02 | 0.00 | 24 | 1019.1 |
| 20260503200203 | 70 | 300 | 4.3 | 8.7 | 0.00 | 1.02 | 0.00 | 23 | 1019.1 |
| 20260503200003 | 69 | 279 | 4.3 | 8.7 | 0.00 | 1.02 | 0.00 | 23 | 1019.2 |
| 20260503195804 | 69 | 268 | 4.3 | 8.7 | 0.00 | 1.02 | 0.00 | 23 | 1019.1 |
| 20260503195604 | 69 | 288 | 5.2 | 8.7 | 0.00 | 1.02 | 0.00 | 23 | 1019.1 |
| 20260503195403 | 69 | 295 | 6.1 | 8.7 | 0.00 | 1.02 | 0.00 | 22 | 1019.4 |
| 20260503195203 | 69 | 302 | 6.1 | 8.7 | 0.00 | 1.02 | 0.00 | 22 | 1019.2 |
| 20260503195005 | 70 | 316 | 6.1 | 8.7 | 0.00 | 1.02 | 0.00 | 22 | 1019.4 |
| 20260503194803 | 71 | 324 | 6.1 | 7.8 | 0.00 | 1.02 | 0.00 | 21 | 1019.5 |
| 20260503194603 | 71 | 321 | 6.1 | 7.8 | 0.00 | 1.02 | 0.00 | 22 | 1019.3 |
| 20260503194404 | 71 | 318 | 5.2 | 7.8 | 0.00 | 1.02 | 0.00 | 21 | 1019.2 |
| 20260503194004 | 70 | 309 | 4.3 | 8.7 | 0.00 | 1.02 | 0.00 | 22 | 1019.2 |
| 20260503193804 | 70 | 304 | 5.2 | 8.7 | 0.00 | 1.02 | 0.00 | 23 | 1019.3 |
| 20260503193604 | 70 | 296 | 5.2 | 8.7 | 0.00 | 1.02 | 0.00 | 22 | 1019.3 |
| 20260503193403 | 70 | 288 | 5.2 | 8.7 | 0.00 | 1.02 | 0.00 | 21 | 1019.4 |
| 20260503193204 | 71 | 291 | 5.2 | 8.7 | 0.00 | 1.02 | 0.00 | 21 | 1019.3 |
| 20260503192804 | 70 | 307 | 5.2 | 7.8 | 0.00 | 1.02 | 0.00 | 21 | 1019.4 |
| 20260503192004 | 72 | 335 | 4.3 | 8.7 | 0.00 | 1.02 | 0.00 | 21 | 1019.3 |
| 20260503191804 | 72 | 329 | 5.2 | 8.7 | 0.00 | 1.02 | 0.00 | 21 | 1019.2 |
| 20260503191604 | 71 | 323 | 5.2 | 8.7 | 0.00 | 1.02 | 0.00 | 22 | 1019.3 |
| 20260503191404 | 71 | 315 | 5.2 | 8.7 | 0.00 | 1.02 | 0.00 | 21 | 1019.3 |
| 20260503191203 | 71 | 312 | 5.2 | 7.8 | 0.00 | 1.02 | 0.00 | 21 | 1019.2 |
| 20260503191004 | 71 | 333 | 5.2 | 7.8 | 0.00 | 1.02 | 0.00 | 21 | 1019.4 |
| 20260503190804 | 71 | 30 | 5.2 | 7.8 | 0.00 | 1.02 | 0.00 | 21 | 1019.3 |
| 20260503190604 | 73 | 58 | 5.2 | 12.2 | 0.00 | 1.02 | 0.00 | 21 | 1019.3 |
| 20260503190404 | 73 | 52 | 5.2 | 12.2 | 0.00 | 1.02 | 0.00 | 23 | 1019.3 |
| 20260503190204 | 73 | 39 | 6.1 | 12.2 | 0.00 | 1.02 | 0.00 | 23 | 1019.4 |
| 20260503190004 | 73 | 9 | 7.0 | 12.2 | 0.00 | 1.02 | 0.00 | 23 | 1019.2 |
| 20260503185804 | 72 | 5 | 7.0 | 12.2 | 0.00 | 1.02 | 0.00 | 22 | 1019.4 |
| 20260503185604 | 73 | 1 | 6.1 | 12.2 | 0.00 | 1.02 | 0.00 | 23 | 1019.4 |
| 20260503185404 | 73 | 14 | 5.2 | 12.2 | 0.00 | 1.02 | 0.00 | 22 | 1019.5 |
| 20260503185204 | 73 | 31 | 6.1 | 12.2 | 0.00 | 1.02 | 0.00 | 21 | 1019.3 |
| 20260503185004 | 73 | 64 | 5.2 | 10.4 | 0.00 | 1.02 | 0.00 | 23 | 1019.5 |
| 20260503184804 | 73 | 44 | 5.2 | 10.4 | 0.00 | 1.02 | 0.00 | 23 | 1019.3 |
| 20260503184203 | 73 | 40 | 6.1 | 10.4 | 0.00 | 1.02 | 0.00 | 22 | 1019.4 |
| 20260503184004 | 72 | 40 | 5.2 | 10.4 | 0.00 | 1.02 | 0.00 | 23 | 1019.5 |
| 20260503183804 | 72 | 46 | 5.2 | 8.7 | 0.00 | 1.02 | 0.00 | 24 | 1019.3 |
| 20260503183603 | 72 | 40 | 6.1 | 9.6 | 0.00 | 1.02 | 0.00 | 23 | 1019.5 |
| 20260503183404 | 71 | 26 | 5.2 | 9.6 | 0.00 | 1.02 | 0.00 | 23 | 1019.8 |
| 20260503183204 | 71 | 8 | 5.2 | 9.6 | 0.00 | 1.02 | 0.00 | 22 | 1019.7 |
| 20260503183004 | 71 | 355 | 5.2 | 9.6 | 0.00 | 1.02 | 0.00 | 22 | 1019.7 |
| 20260503182204 | 70 | 188 | 2.6 | 7.0 | 0.00 | 1.02 | 0.00 | 24 | 1019.7 |
| 20260503182005 | 70 | 256 | 2.6 | 7.0 | 0.00 | 1.02 | 0.00 | 24 | 1019.5 |
| 20260503181804 | 69 | 289 | 3.5 | 7.0 | 0.00 | 1.02 | 0.00 | 24 | 1019.7 |
| 20260503181604 | 69 | 292 | 3.5 | 7.0 | 0.00 | 1.02 | 0.00 | 24 | 1019.7 |
| 20260503181403 | 68 | 306 | 4.3 | 7.0 | 0.00 | 1.02 | 0.00 | 23 | 1019.8 |
| 20260503181204 | 68 | 317 | 4.3 | 7.0 | 0.00 | 1.02 | 0.00 | 22 | 1019.7 |
| 20260503181004 | 70 | 337 | 3.5 | 7.0 | 0.00 | 1.02 | 0.00 | 23 | 1019.6 |
| 20260503180804 | 70 | 352 | 4.3 | 7.0 | 0.00 | 1.02 | 0.00 | 24 | 1019.7 |
| 20260503180603 | 70 | 356 | 4.3 | 6.1 | 0.00 | 1.02 | 0.00 | 23 | 1019.7 |
| 20260503180203 | 69 | 332 | 4.3 | 7.0 | 0.00 | 1.02 | 0.00 | 23 | 1019.8 |
| 20260503180004 | 69 | 318 | 4.3 | 7.8 | 0.00 | 1.02 | 0.00 | 23 | 1019.8 |
| 20260503175804 | 69 | 319 | 5.2 | 7.8 | 0.00 | 1.02 | 0.00 | 23 | 1020.0 |
| 20260503175404 | 70 | 352 | 5.2 | 7.8 | 0.00 | 1.02 | 0.00 | 23 | 1019.8 |
| 20260503175203 | 70 | 42 | 6.1 | 8.7 | 0.00 | 1.02 | 0.00 | 23 | 1020.0 |
| 20260503175004 | 70 | 60 | 6.1 | 8.7 | 0.00 | 1.02 | 0.00 | 24 | 1019.7 |
| 20260503174803 | 70 | 66 | 6.1 | 8.7 | 0.77 | 1.02 | 0.00 | 24 | 1019.8 |
| 20260503174604 | 70 | 85 | 5.2 | 8.7 | 1.02 | 1.02 | 0.00 | 25 | 1019.6 |
| 20260503174203 | 69 | 323 | 4.3 | 8.7 | 1.02 | 1.02 | 0.00 | 24 | 1020.0 |
| 20260503174004 | 68 | 309 | 4.3 | 7.0 | 1.02 | 1.02 | 0.00 | 23 | 1020.0 |
| 20260503173804 | 69 | 309 | 4.3 | 7.0 | 1.02 | 1.02 | 0.00 | 22 | 1019.9 |
| 20260503173404 | 69 | 321 | 4.3 | 7.0 | 1.02 | 1.02 | 0.00 | 23 | 1019.9 |
| 20260503173004 | 68 | 330 | 4.3 | 7.0 | 1.02 | 1.02 | 0.00 | 23 | 1020.0 |
| 20260503172803 | 68 | 343 | 4.3 | 7.0 | 1.02 | 1.02 | 0.00 | 22 | 1020.2 |
| 20260503172604 | 68 | 350 | 5.2 | 7.0 | 1.02 | 1.02 | 0.00 | 23 | 1020.1 |
| 20260503172004 | 69 | 330 | 4.3 | 7.0 | 1.02 | 1.02 | 0.00 | 24 | 1020.1 |
| 20260503171804 | 69 | 325 | 4.3 | 7.0 | 1.02 | 1.02 | 0.00 | 25 | 1020.1 |
| 20260503171604 | 68 | 328 | 4.3 | 7.0 | 1.02 | 1.02 | 0.00 | 25 | 1020.1 |
| 20260503171404 | 68 | 335 | 4.3 | 7.0 | 1.02 | 1.02 | 0.00 | 23 | 1020.2 |
| 20260503171004 | 68 | 315 | 5.2 | 7.8 | 1.02 | 1.02 | 0.00 | 24 | 1020.2 |
| 20260503170803 | 68 | 327 | 5.2 | 7.8 | 1.02 | 1.02 | 0.00 | 23 | 1020.5 |
| 20260503170604 | 68 | 329 | 5.2 | 7.8 | 1.02 | 1.02 | 0.00 | 25 | 1020.2 |
| 20260503170404 | 68 | 328 | 5.2 | 8.7 | 1.02 | 1.02 | 0.00 | 24 | 1020.5 |
| 20260503170203 | 68 | 339 | 6.1 | 8.7 | 1.02 | 1.02 | 0.00 | 24 | 1020.3 |
| 20260503160204 | 62 | 334 | 5.2 | 9.6 | 0.00 | 0.00 | 0.00 | 31 | 1021.0 |
| 20260503151003 | 59 | 45 | 4.3 | 7.0 | 0.00 | 0.00 | 0.00 | 40 | 1021.3 |
| 20260503150804 | 58 | 25 | 3.5 | 7.0 | 0.00 | 0.00 | 0.00 | 40 | 1021.0 |
| 20260503150403 | 57 | 336 | 2.6 | 5.2 | 0.00 | 0.00 | 0.00 | 40 | 1021.2 |
| 20260503150204 | 57 | 308 | 2.6 | 5.2 | 0.00 | 0.00 | 0.00 | 40 | 1021.0 |
| 20260503140204 | 50 | 45 | 4.3 | 6.1 | 0.00 | 0.00 | 0.00 | 58 | 1021.0 |
| 20260503131204 | 46 | 90 | 1.7 | 4.3 | 0.00 | 0.00 | 0.00 | 72 | 1021.0 |
| 20260503131004 | 46 | 81 | 1.7 | 4.3 | 0.00 | 0.00 | 0.00 | 72 | 1021.0 |
| 20260503130803 | 46 | 84 | 1.7 | 4.3 | 0.00 | 0.00 | 0.00 | 72 | 1020.8 |
| 20260503130604 | 45 | 86 | 1.7 | 4.3 | 0.00 | 0.00 | 0.00 | 72 | 1020.9 |
| 20260503130203 | 45 | 88 | 1.7 | 4.3 | 0.00 | 0.00 | 0.00 | 73 | 1020.9 |
| 20260503120204 | 41 | 0 | 0.0 | 0.0 | 0.00 | 0.00 | 0.00 | 82 | 1020.7 |
| 20260503110804 | 41 | 337 | 2.6 | 4.3 | 0.00 | 0.00 | 0.00 | 81 | 1019.7 |
| 20260503110604 | 41 | 337 | 2.6 | 4.3 | 0.00 | 0.00 | 0.00 | 81 | 1019.6 |
| 20260503110403 | 41 | 331 | 2.6 | 4.3 | 0.00 | 0.00 | 0.00 | 81 | 1019.6 |
| 20260503110204 | 41 | 326 | 2.6 | 4.3 | 0.00 | 0.00 | 0.00 | 81 | 1019.5 |
| 20260503090404 | 42 | 324 | 6.1 | 7.8 | 0.00 | 0.00 | 0.00 | 78 | 1018.8 |
| 20260503090204 | 42 | 321 | 6.1 | 7.8 | 0.00 | 0.00 | 0.00 | 78 | 1018.6 |
| 20260503081603 | 43 | 320 | 6.1 | 8.7 | 0.00 | 0.00 | 0.00 | 75 | 1018.4 |
| 20260503081404 | 43 | 321 | 5.2 | 7.0 | 0.00 | 0.00 | 0.00 | 75 | 1018.4 |
| 20260503081204 | 43 | 321 | 5.2 | 7.0 | 0.00 | 0.00 | 0.00 | 75 | 1018.3 |
| 20260503081004 | 43 | 328 | 6.1 | 7.0 | 0.00 | 0.00 | 0.00 | 75 | 1018.2 |
| 20260503080804 | 43 | 326 | 6.1 | 7.8 | 0.00 | 0.00 | 0.00 | 75 | 1018.4 |
| 20260503080603 | 43 | 321 | 6.1 | 7.8 | 0.00 | 0.00 | 0.00 | 75 | 1018.3 |
| 20260503080404 | 43 | 325 | 6.1 | 7.8 | 0.00 | 0.00 | 0.00 | 75 | 1018.4 |
| 20260503072804 | 44 | 330 | 7.0 | 8.7 | 0.00 | 0.00 | 0.00 | 70 | 1018.1 |
| 20260503072403 | 44 | 322 | 7.0 | 8.7 | 0.00 | 0.00 | 0.00 | 70 | 1018.3 |
| 20260503072204 | 44 | 325 | 6.1 | 7.8 | 0.00 | 0.00 | 0.00 | 70 | 1018.2 |
| 20260503071804 | 44 | 322 | 5.2 | 7.8 | 0.00 | 0.00 | 0.00 | 70 | 1018.1 |
| 20260503071603 | 43 | 320 | 5.2 | 7.8 | 0.00 | 0.00 | 0.00 | 74 | 1018.1 |
| 20260503071204 | 44 | 321 | 4.3 | 6.1 | 0.00 | 0.00 | 0.00 | 70 | 1018.2 |
| 20260503071004 | 44 | 329 | 4.3 | 6.1 | 0.00 | 0.00 | 0.00 | 70 | 1017.9 |
| 20260503070804 | 44 | 334 | 4.3 | 7.0 | 0.00 | 0.00 | 0.00 | 70 | 1017.9 |
| 20260503070204 | 44 | 337 | 4.3 | 7.0 | 0.00 | 0.00 | 0.00 | 70 | 1017.8 |
| 20260503060203 | 44 | 353 | 5.2 | 7.8 | 0.00 | 0.00 | 0.00 | 69 | 1017.8 |
| 20260503055004 | 44 | 334 | 5.2 | 7.0 | 0.00 | 0.00 | 0.00 | 70 | 1017.8 |
| 20260503054803 | 44 | 339 | 5.2 | 7.0 | 0.00 | 0.00 | 0.00 | 70 | 1017.8 |
| 20260503054604 | 44 | 334 | 4.3 | 7.0 | 0.00 | 0.00 | 0.00 | 70 | 1017.8 |
| 20260503054403 | 43 | 328 | 4.3 | 6.1 | 0.00 | 0.00 | 0.00 | 74 | 1017.8 |
| 20260503054003 | 43 | 334 | 2.6 | 5.2 | 0.00 | 0.00 | 0.00 | 73 | 1017.9 |
| 20260503053804 | 43 | 326 | 2.6 | 5.2 | 0.00 | 0.00 | 0.00 | 73 | 1017.9 |
| 20260503053603 | 43 | 325 | 2.6 | 4.3 | 0.00 | 0.00 | 0.00 | 73 | 1018.0 |
| 20260503053404 | 43 | 322 | 1.7 | 2.6 | 0.00 | 0.00 | 0.00 | 73 | 1018.0 |
| 20260503053203 | 43 | 322 | 1.7 | 2.6 | 0.00 | 0.00 | 0.00 | 73 | 1017.9 |
| 20260503053004 | 43 | 323 | 1.7 | 2.6 | 0.00 | 0.00 | 0.00 | 72 | 1017.8 |
| 20260503052804 | 44 | 320 | 1.7 | 2.6 | 0.00 | 0.00 | 0.00 | 68 | 1017.8 |
| 20260503052603 | 44 | 314 | 1.7 | 2.6 | 0.00 | 0.00 | 0.00 | 68 | 1017.7 |
| 20260503051804 | 44 | 314 | 0.9 | 1.7 | 0.00 | 0.00 | 0.00 | 66 | 1017.7 |
| 20260503051204 | 45 | 314 | 1.7 | 4.3 | 0.00 | 0.00 | 0.00 | 65 | 1017.7 |
| 20260503050804 | 45 | 323 | 1.7 | 4.3 | 0.00 | 0.00 | 0.00 | 65 | 1017.7 |
| 20260503050604 | 45 | 327 | 2.6 | 4.3 | 0.00 | 0.00 | 0.00 | 65 | 1017.7 |
| 20260503050204 | 45 | 334 | 2.6 | 4.3 | 0.00 | 0.00 | 0.00 | 64 | 1017.9 |
| 20260503050003 | 45 | 332 | 3.5 | 4.3 | 0.00 | 0.00 | 0.00 | 64 | 1017.6 |
| 20260503045804 | 46 | 329 | 3.5 | 4.3 | 0.00 | 0.00 | 0.00 | 64 | 1017.8 |
| 20260503045603 | 46 | 329 | 3.5 | 4.3 | 0.00 | 0.00 | 0.00 | 63 | 1017.6 |
| 20260503045404 | 46 | 331 | 3.5 | 5.2 | 0.00 | 0.00 | 0.00 | 63 | 1017.8 |
| 20260503045203 | 46 | 326 | 3.5 | 5.2 | 0.00 | 0.00 | 0.00 | 63 | 1017.8 |
| 20260503045004 | 46 | 326 | 3.5 | 5.2 | 0.00 | 0.00 | 0.00 | 62 | 1017.8 |
| 20260503044803 | 46 | 325 | 3.5 | 5.2 | 0.00 | 0.00 | 0.00 | 62 | 1017.8 |
| 20260503044603 | 46 | 330 | 3.5 | 5.2 | 0.00 | 0.00 | 0.00 | 62 | 1018.0 |
| 20260503044203 | 47 | 333 | 2.6 | 4.3 | 0.00 | 0.00 | 0.00 | 61 | 1017.8 |
| 20260503043803 | 47 | 322 | 2.6 | 4.3 | 0.00 | 0.00 | 0.00 | 61 | 1017.7 |
| 20260503043604 | 47 | 315 | 3.5 | 4.3 | 0.00 | 0.00 | 0.00 | 61 | 1017.6 |
| 20260503043403 | 47 | 317 | 2.6 | 4.3 | 0.00 | 0.00 | 0.00 | 60 | 1017.7 |
| 20260503043203 | 47 | 311 | 2.6 | 4.3 | 0.00 | 0.00 | 0.00 | 60 | 1017.7 |
| 20260503043004 | 47 | 322 | 2.6 | 4.3 | 0.00 | 0.00 | 0.00 | 60 | 1017.8 |
| 20260503042803 | 47 | 323 | 3.5 | 6.1 | 0.00 | 0.00 | 0.00 | 60 | 1017.9 |
| 20260503042604 | 47 | 319 | 3.5 | 6.1 | 0.00 | 0.00 | 0.00 | 58 | 1017.8 |
| 20260503042404 | 47 | 322 | 3.5 | 6.1 | 0.00 | 0.00 | 0.00 | 58 | 1018.0 |
| 20260503042204 | 47 | 318 | 4.3 | 6.1 | 0.00 | 0.00 | 0.00 | 58 | 1018.0 |